Flight Information

DEPARTURE
KALISPELL, MT
Elevation:
2976
Runways:
12/30 - 3510x75 - ASPH-G
2/20 - 9007x150 - ASPH-G
ATIS:
132.625
Ground:
121.6
Tower:
GLACIER TOWER 124.55
DESTINATION
,
Elevation:
TPA:
1000 (est.)


6351.2 NM71° True-18° Var53° HDG

Flight Plan:
(click to file on line)

1. Type
2. Aircraft Identification
3. Aircraft Type / Special Equipment
4. True Airspeed
kts
5. Departure Airport
(ICAO code)
6. Arriving Airport
(ICAO code)
7. Cruising Altitude
ft
8. Alternate Airport
(ICAO code)
9. Route of Flight
10. Remarks


00:00:00 Departure ATIS: Destination ATIS:

Clearance Limit:
Route:
Altitude: Expect in minutes
Frequency:
Transponder: (7500 Hijack / 7600 Lost Comms / 7700 Emergency)


KGPI 110255Z 22004KT 10SM SCT055 SCT075 BKN120 01/M06 A2996 RMK AO2 SLP164 T00111061 53031
Time: 2021-04-11T02:55:00Z
1618111080
Winds: 220 @ 4 kts
Visibility: 10.0 sm
Clouds (AGL): SCT 5500
SCT 7500
BKN 12000
Temperature: 1.1 C
Dew Point: -6.1 C
Pressure: 29.958662 in Hgbr


Notes:

Data extracted from FAA Digital Chart Supplement. Effective: 0901Z Thursday, Feb 25, 2021 to 0901Z Thursday, APR 22, 2021
Current ATIS data is provided courtisy of PilotEdge.